Wind_Speed
9 9 8 10 15 12 10 7 10 11 9 17 14 17 14 14 15 15 13 18 19 15 14 14 13 12 10 9 8 7 7 8 11 12 13 12 11 10 8 9 10 10 9 10 11 11 11 11 13
5 11 12 12 12 14 7 10 10 10 10 9 11 15 15 15 14 14 14 18 18 16 15 15 13 11 9 8 7 8 8 9 11 12 12 10 10 8 8 8 8 8 8 9 8 8 8 8 8
7 7 12 16 20 13 9 15 14 8 5 7 10 6 9 14 14 17 17 16 17 16 14 13 11 9 9 8 8 8 9 9 11 10 9 9 8 8 8 8 7 7 7 7 6 5 5 7 6
13 3 14 9 18 15 14 16 11 8 10 10 9 8 7 12 18 17 15 16 15 14 12 11 11 10 10 9 9 10 8 8 8 8 8 7 9 9 8 7 7 8 8 6 4 2 2 3 3
12 7 10 7 16 18 17 15 12 12 8 8 8 10 12 12 18 17 15 14 14 12 10 10 11 11 10 10 9 9 7 7 8 7 7 8 8 7 7 7 7 8 8 7 6 5 4 3 2
7 4 7 11 12 13 15 17 7 11 6 6 7 11 10 11 17 15 14 12 9 10 9 10 10 11 11 10 10 9 8 9 8 8 9 9 7 8 8 8 7 8 6 6 6 7 9 7 8
5 4 11 7 20 5 15 19 21 14 11 2 4 9 8 7 11 14 12 9 7 8 10 10 11 12 12 12 11 11 11 11 10 11 11 10 11 11 10 10 11 8 7 10 10 10 9 6 10
14 4 7 8 8 8 15 15 13 12 9 2 1 6 9 5 5 8 8 5 5 9 11 12 13 14 13 12 12 12 13 13 13 12 13 12 12 11 10 10 11 9 10 10 10 13 11 11 13
7 9 10 7 4 12 10 17 16 12 9 5 4 6 7 5 4 3 4 3 6 10 12 13 14 14 12 12 12 12 12 13 14 12 11 15 16 15 14 15 15 15 13 15 14 15 14 16 17
4 5 15 3 9 11 17 17 16 13 11 4 5 1 6 7 6 3 3 3 8 12 14 14 16 14 13 12 12 12 12 12 12 13 14 13 14 14 14 14 14 14 13 13 14 15 12 15 15
17 14 7 5 10 12 12 17 16 22 14 7 5 1 3 6 6 4 5 6 10 14 17 15 15 13 13 13 12 12 12 11 10 12 12 12 12 12 10 13 13 12 12 13 12 10 11 12 12
25 14 8 6 9 11 13 18 16 16 8 8 9 5 3 5 7 7 9 11 13 16 18 15 14 13 13 12 11 11 11 11 9 9 10 11 11 11 10 13 9 9 12 11 11 11 12 12 12
14 20 16 8 10 17 21 21 19 9 17 9 9 4 2 7 8 9 10 11 15 18 17 16 13 11 11 11 10 10 10 11 10 8 9 9 11 10 10 8 7 11 11 11 10 10 10 11 11
20 18 18 12 9 12 18 9 25 17 15 14 14 7 2 6 9 10 12 14 16 17 16 16 13 10 10 10 10 10 10 10 9 9 8 9 8 7 6 7 7 7 8 8 9 10 11 11 12
23 18 11 19 9 16 17 14 20 17 12 15 18 12 7 6 10 10 14 18 18 17 16 14 12 9 9 8 10 11 9 8 9 7 7 6 5 5 6 5 6 7 9 9 11 12 12 13 13
21 16 19 13 9 19 15 18 18 15 7 14 17 15 5 8 9 11 14 17 17 17 15 13 10 8 9 8 10 11 11 9 7 7 7 5 5 6 5 6 7 9 10 10 11 11 13 14 13
25 16 17 14 12 13 12 21 17 16 16 9 11 15 5 6 11 12 16 16 14 14 15 13 11 9 9 11 10 10 9 10 8 7 6 6 5 5 6 8 8 9 10 11 11 12 14 14 13
19 16 19 16 12 14 15 17 18 11 15 17 0 7 1 4 8 12 14 15 16 16 14 13 11 9 9 8 9 9 8 7 7 5 4 5 4 5 8 9 9 12 12 12 12 13 14 15 16
22 20 21 20 22 17 18 24 13 15 14 6 3 4 3 6 7 10 12 14 15 13 12 9 8 8 7 8 7 6 8 6 5 2 2 1 4 5 7 11 11 11 10 10 11 11 12 13 14
28 24 23 22 17 24 27 19 18 13 7 2 1 5 7 6 5 8 10 11 12 13 11 10 7 6 5 3 4 5 6 5 5 4 2 2 4 6 8 10 10 9 9 9 10 12 14 16 17
28 28 26 24 26 22 20 26 24 16 11 4 1 3 9 7 8 9 10 13 12 11 11 10 10 7 5 5 6 6 7 7 7 7 6 6 7 8 9 7 7 7 9 10 12 15 18 21 23
26 24 28 34 30 28 32 34 26 21 15 6 8 2 9 9 8 5 6 8 9 10 8 8 8 8 7 7 7 8 8 8 8 8 7 8 10 11 6 5 8 8 8 11 12 15 18 20 21
19 31 33 35 33 32 35 34 28 29 19 12 8 8 7 8 8 5 4 3 5 5 7 7 6 6 8 10 10 10 10 10 11 10 8 10 13 10 7 5 6 5 10 12 16 17 18 17 21
25 32 38 39 36 45 38 37 26 33 20 13 9 10 12 8 10 10 10 9 7 7 9 12 13 13 12 11 13 14 14 13 13 13 11 12 10 7 6 6 3 6 9 12 15 14 13 18 24
29 36 43 47 53 50 40 41 25 24 21 13 11 7 11 11 11 13 10 11 9 9 13 17 19 18 17 15 15 17 17 16 15 14 13 12 8 6 5 4 4 7 10 10 15 14 13 20 25
31 38 45 53 53 49 46 50 32 20 17 17 9 11 10 7 12 16 15 15 14 15 14 17 18 17 17 19 18 20 19 19 17 16 13 12 7 6 6 2 6 5 6 12 13 12 15 19 23
30 40 38 46 49 49 49 52 38 30 22 18 13 16 16 8 10 19 25 21 12 11 10 12 16 13 12 14 17 21 23 21 17 15 13 12 8 8 5 3 1 4 7 10 11 14 17 22 25
38 31 38 45 49 56 49 50 41 35 25 18 19 21 23 17 14 22 16 24 9 3 7 12 14 14 12 11 14 16 18 18 17 14 15 11 12 5 3 4 4 4 5 7 11 15 19 22 22
41 42 42 41 40 45 45 42 42 35 30 23 25 24 24 22 17 18 19 28 21 9 10 13 13 12 10 11 11 9 13 14 16 16 16 14 10 4 5 4 3 3 4 7 9 14 18 23 24
46 46 43 45 44 42 37 31 31 38 37 34 23 21 20 18 21 18 18 15 21 12 10 13 15 14 12 13 10 9 9 9 18 20 17 13 7 6 5 4 4 3 5 12 12 18 24 27 28
Wind_Direction
128 149 108 77 100 112 106 84 86 56 56 55 88 90 96 113 102 97 89 93 98 111 111 112 109 105 102 103 105 108 125 117 97 88 85 86 80 77 78 78 78 89 102 102 103 111 113 112 106
134 85 115 128 74 79 79 69 68 61 51 48 91 70 96 98 103 95 98 96 103 107 107 102 106 107 108 108 122 128 120 108 99 92 86 79 76 90 90 84 82 82 97 104 107 115 120 112 98
128 186 186 87 69 61 82 68 71 54 47 63 84 61 105 107 114 108 112 108 104 103 102 101 108 118 122 134 138 127 118 106 96 85 75 73 91 97 89 85 79 78 81 96 108 116 121 110 105
75 112 113 62 91 82 74 67 17 70 58 64 75 90 103 122 119 121 109 106 107 106 107 117 125 129 140 143 133 122 117 98 84 69 67 78 81 79 88 92 80 71 66 65 76 108 117 117 126
90 113 97 131 55 62 58 46 105 64 59 64 59 100 110 129 123 126 119 116 115 112 117 128 130 133 133 131 122 111 98 83 71 74 88 81 76 72 77 82 75 62 60 59 61 55 38 15 2
109 339 140 42 80 46 40 43 49 42 41 74 87 104 125 141 128 128 126 125 120 121 122 124 120 119 124 119 112 99 85 78 83 93 93 80 68 65 69 74 64 51 46 42 45 53 46 20 29
201 229 58 110 147 49 31 29 20 14 344 358 112 120 134 147 138 134 131 130 126 117 126 122 121 124 123 116 108 91 88 94 98 93 89 77 72 70 68 64 63 57 43 38 33 44 47 15 33
52 77 126 105 130 23 7 27 25 27 32 0 235 149 141 165 146 138 143 141 124 124 125 125 128 129 122 114 107 101 97 98 96 99 91 85 77 74 68 70 69 64 64 66 52 55 51 45 54
41 130 120 112 40 9 33 25 19 31 40 9 235 164 167 167 179 193 166 167 133 130 132 133 134 125 117 112 110 113 106 102 97 94 92 87 85 82 83 84 86 73 76 69 62 61 56 54 63
173 122 117 101 349 358 342 14 14 28 38 9 254 244 231 238 198 232 194 153 145 140 137 139 128 120 117 117 113 113 108 104 103 95 89 99 92 91 89 79 76 83 69 67 58 52 59 56 57
173 126 135 91 20 352 16 18 28 22 15 339 308 40 230 205 175 189 166 161 150 141 135 130 121 115 117 119 114 114 110 107 109 103 102 99 94 94 95 69 76 73 67 54 56 41 43 49 50
168 159 151 67 25 7 349 353 353 22 27 357 14 351 238 215 168 169 160 153 141 137 129 124 124 122 123 120 115 115 119 115 104 87 91 101 95 92 72 73 73 65 68 59 44 34 31 32 39
174 128 129 89 15 350 355 357 340 9 5 359 15 9 214 207 167 164 158 142 144 140 134 128 126 128 123 119 123 119 116 115 115 105 99 95 90 85 86 81 60 47 39 34 29 24 15 17 17
214 167 132 170 156 298 329 281 331 340 356 358 2 8 356 194 172 159 152 146 152 142 135 134 132 126 119 118 120 116 114 120 115 113 105 103 106 99 77 65 58 42 37 22 6 13 1 356 357
217 232 171 149 156 195 276 316 333 339 2 8 345 359 356 172 175 163 158 158 156 146 145 141 137 134 127 115 106 107 98 102 103 111 102 101 105 73 66 57 30 28 24 16 358 355 349 343 349
231 241 258 183 166 222 250 288 334 355 354 351 351 345 23 136 171 159 163 159 154 149 146 146 150 138 141 135 124 112 121 142 127 110 109 99 81 66 39 28 14 14 5 3 354 347 337 342 346
241 266 232 186 182 243 260 272 326 347 3 347 330 335 349 124 159 166 155 156 157 156 159 163 163 159 151 156 138 128 130 139 131 120 108 95 62 42 15 14 4 352 337 337 337 333 333 330 336
241 255 235 185 176 232 252 280 310 335 2 16 119 305 335 146 163 171 157 160 166 172 175 176 169 171 167 157 150 142 142 137 133 127 78 46 24 16 0 346 341 329 329 332 333 335 328 334 332
221 228 215 174 187 212 258 279 302 300 336 4 348 271 197 179 184 181 168 167 169 177 182 190 191 183 181 172 154 158 159 163 156 143 108 56 338 354 333 322 333 334 338 340 331 328 334 335 329
222 204 208 208 202 212 228 270 281 275 305 253 8 300 238 175 194 194 180 175 174 179 184 190 216 211 203 203 178 177 184 186 196 193 211 264 286 306 311 320 322 328 336 325 319 321 320 318 316
209 211 201 218 209 222 229 254 260 274 277 344 239 314 249 199 197 213 198 193 196 193 194 195 202 228 231 215 216 213 216 206 210 229 237 265 285 295 298 308 307 307 309 313 313 313 318 320 320
214 203 202 207 215 216 218 232 250 248 252 258 171 195 232 202 198 211 223 219 218 222 219 212 208 221 233 233 229 226 224 225 231 247 268 286 292 289 295 289 278 296 311 321 326 331 332 333 337
197 204 200 209 218 232 222 238 219 227 230 215 235 205 231 225 203 183 228 223 222 236 247 247 234 248 249 241 243 238 234 238 244 251 269 290 290 271 249 253 268 311 323 330 334 337 342 355 0
211 203 205 207 215 231 227 234 235 224 254 261 255 250 227 257 262 187 209 214 227 245 257 260 256 247 250 262 263 249 247 244 254 267 276 280 256 238 248 256 300 326 329 322 340 343 341 348 355
217 207 206 211 214 231 229 234 226 222 235 244 261 246 235 273 240 252 214 246 247 261 264 266 262 255 248 248 252 253 253 257 259 262 269 269 239 236 235 243 302 327 321 329 346 359 341 346 349
234 222 218 215 220 229 228 233 236 211 240 244 254 258 262 283 262 248 255 231 248 263 269 275 271 264 255 247 244 253 257 259 262 262 266 245 208 202 233 236 335 4 351 344 341 341 338 342 342
233 233 224 223 230 231 232 234 236 226 221 232 258 274 277 279 307 298 273 263 220 254 268 271 265 261 263 253 246 252 258 259 253 259 253 219 192 197 219 309 334 352 340 346 348 337 339 338 334
226 232 227 226 226 232 237 237 239 233 221 234 237 249 278 282 283 280 332 236 220 228 274 285 260 261 267 270 261 255 257 256 239 238 225 195 184 185 286 284 317 350 354 341 338 335 335 343 346
229 227 230 233 233 235 242 244 239 234 219 228 238 247 260 268 273 283 304 252 274 245 264 269 247 253 267 265 257 265 259 256 223 216 205 203 189 204 230 271 293 321 5 353 356 357 356 353 358
229 231 231 236 239 239 247 253 235 230 218 219 226 232 255 259 268 271 276 254 252 230 233 259 234 247 258 262 265 271 271 249 204 195 195 202 223 253 247 271 272 264 332 352 353 357 358 353 348
Height
5895 5894 5895 5893 5897 5898 5899 5897 5897 5898 5899 5900 5898 5899 5901 5902 5903 5903 5902 5899 5899 5902 5902 5902 5903 5903 5904 5904 5905 5905 5906 5905 5904 5903 5903 5904 5904 5905 5907 5907 5907 5907 5907 5907 5906 5905 5906 5906 5906
5896 5896 5895 5897 5897 5898 5900 5900 5900 5899 5900 5902 5901 5902 5903 5903 5903 5903 5905 5902 5902 5903 5904 5903 5904 5905 5905 5906 5908 5908 5908 5907 5906 5905 5905 5906 5906 5907 5908 5907 5907 5909 5908 5907 5907 5907 5907 5907 5907
5897 5897 5899 5897 5897 5898 5900 5901 5903 5902 5902 5902 5901 5902 5902 5901 5902 5904 5904 5905 5904 5905 5905 5906 5906 5906 5907 5908 5910 5909 5909 5908 5907 5907 5907 5907 5908 5909 5909 5908 5909 5909 5908 5908 5908 5908 5909 5909 5908
5897 5900 5897 5899 5895 5898 5900 5904 5906 5903 5903 5902 5901 5903 5903 5901 5901 5904 5905 5905 5906 5907 5907 5908 5908 5908 5909 5911 5910 5910 5910 5909 5909 5909 5909 5910 5910 5911 5910 5911 5911 5910 5909 5909 5909 5909 5910 5910 5909
5898 5899 5897 5894 5894 5897 5901 5904 5907 5904 5902 5903 5902 5904 5904 5904 5903 5905 5905 5907 5907 5908 5909 5909 5909 5909 5911 5911 5911 5911 5910 5910 5910 5911 5911 5911 5912 5912 5912 5913 5913 5911 5909 5909 5909 5910 5911 5912 5912
5895 5884 5893 5894 5893 5896 5900 5904 5905 5904 5904 5903 5905 5905 5906 5905 5904 5905 5906 5908 5909 5908 5909 5909 5909 5910 5911 5911 5912 5911 5911 5911 5911 5911 5911 5913 5913 5913 5913 5913 5913 5914 5911 5909 5909 5909 5911 5909 5911
5897 5895 5897 5897 5894 5896 5900 5902 5901 5904 5903 5903 5904 5905 5908 5907 5905 5906 5908 5909 5909 5908 5909 5910 5910 5911 5912 5912 5912 5912 5912 5912 5912 5913 5914 5914 5914 5915 5914 5914 5915 5914 5913 5912 5911 5911 5911 5910 5913
5891 5896 5900 5900 5900 5900 5901 5904 5906 5907 5904 5904 5905 5905 5906 5907 5907 5908 5908 5909 5909 5909 5910 5911 5912 5912 5912 5912 5914 5915 5915 5914 5914 5914 5915 5916 5916 5916 5916 5916 5916 5916 5915 5913 5912 5912 5912 5912 5915
5900 5898 5901 5902 5902 5899 5901 5906 5905 5907 5905 5903 5904 5906 5907 5906 5907 5908 5908 5909 5909 5910 5911 5911 5912 5913 5913 5914 5916 5917 5916 5916 5916 5917 5918 5918 5918 5918 5918 5918 5919 5920 5917 5915 5915 5914 5915 5915 5917
5900 5898 5900 5902 5901 5903 5898 5899 5905 5908 5907 5905 5905 5904 5905 5906 5906 5906 5907 5908 5910 5910 5911 5912 5913 5914 5915 5916 5918 5919 5919 5918 5919 5919 5920 5921 5921 5920 5921 5920 5921 5922 5920 5918 5917 5917 5918 5918 5919
5899 5898 5902 5902 5901 5899 5900 5900 5903 5904 5907 5906 5906 5905 5905 5905 5903 5905 5906 5909 5910 5911 5912 5913 5914 5915 5917 5918 5919 5920 5921 5921 5921 5922 5923 5923 5923 5924 5923 5923 5922 5925 5922 5920 5919 5920 5920 5921 5921
5897 5897 5901 5904 5902 5899 5899 5900 5900 5905 5907 5903 5902 5904 5904 5902 5903 5905 5907 5909 5910 5912 5913 5914 5915 5917 5918 5919 5920 5921 5922 5923 5923 5924 5926 5926 5926 5927 5926 5925 5925 5925 5923 5922 5922 5921 5920 5921 5921
5899 5896 5899 5902 5904 5900 5899 5897 5900 5903 5905 5902 5904 5905 5904 5904 5905 5906 5907 5908 5911 5913 5913 5915 5916 5918 5920 5920 5921 5923 5923 5925 5925 5926 5927 5928 5928 5929 5929 5929 5928 5925 5924 5924 5924 5924 5923 5922 5921
5898 5894 5895 5899 5900 5902 5901 5901 5902 5903 5905 5899 5901 5904 5905 5904 5905 5906 5907 5908 5912 5913 5914 5916 5918 5919 5921 5922 5922 5923 5925 5926 5926 5927 5928 5929 5931 5931 5931 5930 5929 5928 5927 5927 5926 5924 5923 5922 5922
5892 5894 5893 5893 5898 5899 5901 5900 5903 5903 5906 5901 5897 5901 5902 5904 5904 5906 5907 5910 5912 5913 5916 5918 5920 5921 5922 5923 5923 5924 5924 5925 5926 5928 5929 5930 5932 5932 5932 5932 5931 5930 5928 5927 5925 5924 5924 5923 5921
5890 5894 5894 5894 5896 5896 5897 5900 5902 5904 5905 5903 5901 5899 5900 5903 5904 5905 5908 5909 5911 5914 5916 5919 5921 5922 5923 5924 5925 5925 5926 5926 5928 5928 5930 5931 5931 5931 5932 5932 5931 5930 5928 5928 5927 5926 5923 5921 5920
5885 5891 5894 5892 5893 5895 5895 5900 5900 5901 5902 5902 5903 5902 5901 5902 5907 5906 5908 5909 5911 5914 5917 5920 5921 5923 5924 5925 5925 5925 5926 5928 5928 5929 5931 5931 5931 5932 5932 5932 5932 5931 5930 5928 5927 5926 5923 5922 5920
5884 5888 5891 5891 5895 5894 5896 5900 5897 5900 5899 5902 5901 5902 5903 5903 5907 5907 5907 5911 5913 5916 5918 5920 5922 5924 5925 5925 5925 5926 5927 5928 5928 5929 5929 5930 5931 5932 5931 5931 5931 5929 5928 5927 5926 5924 5923 5921 5919
5882 5885 5889 5891 5893 5892 5896 5897 5895 5896 5899 5901 5903 5904 5904 5905 5907 5910 5909 5911 5914 5916 5917 5918 5920 5923 5924 5925 5924 5925 5927 5928 5929 5929 5930 5931 5931 5930 5931 5930 5929 5928 5926 5925 5923 5922 5919 5918 5916
5877 5880 5886 5888 5889 5889 5891 5895 5894 5895 5899 5900 5901 5905 5905 5906 5908 5910 5911 5911 5913 5915 5916 5918 5919 5920 5921 5922 5924 5925 5926 5928 5929 5929 5929 5931 5931 5930 5930 5929 5927 5926 5925 5923 5921 5919 5918 5916 5913
5871 5876 5883 5887 5885 5885 5888 5891 5890 5892 5893 5895 5898 5902 5906 5905 5907 5909 5910 5910 5911 5913 5916 5918 5918 5918 5919 5921 5923 5924 5926 5927 5928 5928 5929 5930 5930 5929 5928 5926 5925 5924 5923 5922 5921 5919 5917 5914 5911
5866 5874 5880 5880 5879 5880 5883 5886 5886 5890 5889 5891 5895 5900 5905 5903 5905 5907 5909 5909 5910 5911 5913 5915 5916 5917 5918 5920 5922 5923 5925 5926 5926 5927 5928 5928 5928 5926 5925 5924 5923 5922 5921 5920 5920 5918 5915 5912 5908
5867 5867 5872 5875 5875 5876 5876 5879 5885 5889 5885 5888 5893 5898 5903 5904 5904 5904 5906 5908 5908 5910 5911 5913 5915 5917 5918 5919 5920 5922 5923 5924 5925 5926 5926 5925 5924 5923 5922 5921 5921 5921 5921 5920 5918 5915 5912 5909 5906
5861 5861 5865 5868 5868 5861 5870 5872 5875 5880 5887 5888 5889 5896 5900 5901 5902 5899 5903 5904 5906 5907 5908 5909 5911 5914 5915 5917 5918 5919 5920 5921 5922 5922 5923 5923 5922 5921 5919 5918 5919 5919 5919 5918 5915 5913 5910 5906 5904
5848 5853 5854 5856 5851 5847 5863 5863 5870 5877 5881 5883 5886 5891 5893 5897 5898 5899 5900 5902 5902 5903 5904 5906 5907 5909 5911 5914 5915 5916 5917 5918 5919 5919 5920 5920 5918 5916 5917 5917 5918 5918 5916 5914 5913 5910 5907 5904 5900
5840 5842 5843 5842 5844 5849 5857 5849 5859 5872 5875 5878 5882 5884 5886 5891 5894 5897 5899 5897 5899 5900 5901 5901 5902 5904 5905 5908 5910 5911 5913 5914 5915 5916 5917 5915 5914 5914 5916 5917 5916 5915 5914 5912 5909 5907 5905 5901 5897
5835 5829 5841 5842 5846 5844 5845 5849 5857 5863 5868 5871 5874 5877 5881 5885 5890 5895 5896 5895 5895 5896 5897 5898 5899 5900 5901 5902 5904 5906 5907 5909 5911 5912 5912 5912 5911 5912 5914 5915 5914 5913 5911 5910 5907 5905 5902 5899 5895
5821 5831 5830 5828 5830 5832 5837 5841 5846 5856 5863 5865 5868 5872 5876 5880 5884 5891 5888 5891 5891 5892 5893 5895 5896 5898 5899 5899 5901 5902 5902 5903 5906 5908 5908 5909 5909 5910 5911 5911 5910 5909 5909 5907 5905 5903 5900 5897 5893
5813 5813 5818 5823 5825 5825 5829 5828 5842 5851 5857 5861 5863 5867 5874 5876 5877 5881 5883 5887 5892 5888 5890 5891 5892 5894 5896 5897 5898 5898 5897 5898 5900 5903 5904 5904 5906 5908 5908 5908 5906 5905 5905 5905 5903 5901 5897 5892 5889
5801 5803 5809 5810 5815 5819 5823 5818 5837 5845 5851 5853 5857 5862 5867 5871 5871 5871 5877 5879 5885 5883 5885 5888 5889 5890 5891 5893 5894 5895 5894 5894 5895 5898 5900 5900 5900 5901 5902 5903 5902 5902 5901 5900 5898 5896 5893 5890 5886